Miscellaneous Local Product
Issued by NWS North Platte, NE

Home | Current Version | Previous Version | Text Only | Print | Product List | Glossary On
Versions: 1 2 3 4 5 6 7 8 9 10 11 12 13 14 15 16 17 18 19 20 21 22 23 24 25 26 27 28 29 30 31 32 33 34 35 36 37 38 39 40 41 42 43 44 45 46 47 48 49 50
000
AXUS43 KLBF 080610
MISLBF


WESTERN AND NORTH CENTRAL NEBRASKA HOURLY WEATHER ROUNDUP
NATIONAL WEATHER SERVICE NORTH PLATTE NE
100 AM CDT WED JUL 08 2015

***STATIONS NOT REPORTING VARIABLES SUCH AS SKY/WEATHER OR
PRESSURE ARE PROVIDED BY THE NEBRASKA DEPARTMENT OF
ROADS...RAWS...AND APRS NETWORKS...AND ARE NOT UNDER
NATIONAL WEATHER SERVICE QUALITY CONTROL***

...OBSERVATIONS IN AND NEAR THE EASTERN PANHANDLE OF NEBRASKA...

CITY           SKY/WX    TMP DP  RH WIND       PRES   REMARKS
PINE RIDGE     PTCLDY    64  51  62 S18G29    30.03F
CHADRON        MOCLDY    65  50  58 S14       30.02F
ALLIANCE       CLOUDY    63  52  67 S10       30.07F
SIDNEY         MOCLDY    60  49  66 SE9       30.10F
WHITECLAY        N/A     62  52  71 SE9         N/A
CRESCENT LAKE    N/A     63  54  73 S8G16       N/A
BIG SPRINGS      N/A     64  51  63 SE5         N/A
$$

...OBSERVATIONS IN NORTH CENTRAL NEBRASKA...

CITY           SKY/WX    TMP DP  RH WIND       PRES   REMARKS
VALENTINE      MOCLDY    62  53  72 S13       30.06F
THEDFORD       CLOUDY    61  56  85 SE5       30.09F
AINSWORTH      PTCLDY    58  52  80 S9        30.09F
O`NEILL        CLEAR     57  51  81 SE3       30.10F
ORD            PTCLDY    53  49  86 CALM      30.10S
BROKEN BOW     MOCLDY    57  53  86 E3        30.10F
VALENTINE NWR    N/A     57  53  87 SE6         N/A
SPRINGVIEW       N/A     57  53  85 E3          N/A
HALSEY           N/A     58  53  85 SE5         N/A
BREWSTER         N/A     62  57  84 S5          N/A
ROSE             N/A     68  67  97 SE9         N/A
NEWPORT          N/A     56  52  86 SE3         N/A
SARGENT          N/A     56  52  88 CALM        N/A
CHAMBERS         N/A     55  47  76 CALM        N/A
EWING            N/A     54  50  87 CALM        N/A
$$

...OBSERVATIONS IN SOUTHWEST NEBRASKA AND FAR NORTHEAST COLORADO...

CITY           SKY/WX    TMP DP  RH WIND       PRES   REMARKS
WRAY           FAIR      63  48  58 E5        30.10S
HOLYOKE        FAIR      63  48  59 SE10      30.10S
IMPERIAL       CLOUDY    64  49  57 SE10      30.09F
OGALLALA       CLOUDY    64  52  64 SE10      30.09F
NORTH PLATTE   CLOUDY    63  54  72 SE5       30.09F
MCCOOK         MOCLDY    61  51  70 E12       30.08F
LEXINGTON      PTCLDY    60  55  83 SE5       30.11S
PAXTON           N/A     63  55  74 SE9         N/A
GOTHENBURG       N/A     58  51  79 E3          N/A
CALLAWAY         N/A     58  56  94 SE3         N/A
$$

...NORTH PLATTE AREA...

CITY           SKY/WX    TMP DP  RH WIND       PRES   REMARKS
AIRPORT        CLOUDY    63  54  72 SE5       30.09F
DOWNTOWN         N/A     63  54  72 CALM        N/A
HILLCREST        N/A     62  55  78 SE5         N/A
$$

...SOME WEATHER OBSERVATIONS FROM AROUND THE REGION...

CITY           SKY/WX    TMP DP  RH WIND       PRES   REMARKS
DENVER         MOCLDY    57  52  83 S7        30.09F HAZE
LARAMIE        CLOUDY    54  52  93 SE7       30.16F
CHEYENNE       MOCLDY    56  52  86 S3        30.12F FOG
SCOTTSBLUFF    CLOUDY    63  51  65 E8        30.07F
RAPID CITY     CLOUDY    66  57  72 SW8       30.01F
PIERRE         CLEAR     62  55  77 SE15      29.99F
WINNER         FAIR      61  51  70 SE10      30.05F
SIOUX FALLS    PTCLDY    59  51  75 SE7       30.11F
OMAHA          CLEAR     60  54  80 CALM      30.09F
GRAND ISLAND   CLEAR     56  51  84 E5        30.11F
KANSAS CITY    DRIZZLE   66  59  78 E8        30.06F
WICHITA        LGT RAIN  63  60  90 NE10      30.04F FOG
HAYS           CLEAR     57  45  62 CALM      30.09S
LIBERAL        MOCLDY    57  45  62 S3        30.11R
GOODLAND       MOCLDY    61  46  57 SE9       30.10F
$$



USA.gov is the U.S. government's official web portal to all federal, state and local government web resources and services.